Location: Grandview
(34.8900°N, 117.1058°W)
Time: 04:51:48
(UTC-07:00)

KKS-1 - Visible Passes

Search period start: 20 May 2018 00:00
Search period end: 30 May 2018 00:00
Orbit: 637 x 651 km, 98.4° (Epoch: 19 May)

Date Brightness Start Highest point End Pass type
(mag) Time Alt. Az. Time Alt. Az. Time Alt. Az.
23 May ? 04:55:35 10° ESE 04:58:38 19° ENE 05:01:42 10° NNE visible
26 May ? 04:35:37 10° ENE 04:36:23 10° ENE 04:37:08 10° NE visible
27 May ? 04:57:39 10° ESE 05:00:46 19° ENE 05:03:55 10° NNE visible
